Other Public Products
Issued by NWS Grand Forks, ND

Home | Current Version | Previous Version | Graphics & Text | Print | Product List | Glossary On
Versions: 1 2 3 4 5 6 7 8 9 10 11 12 13 14 15 16 17 18 19 20 21 22 23 24 25 26 27 28 29 30 31 32 33 34 35 36 37 38 39 40 41 42 43 44 45 46 47 48 49 50
000
FPUS83 KFGF 021031
OPUFGF
PRAIRIE TO PINES WEATHER ROUNDUP
NATIONAL WEATHER SERVICE EASTERN NORTH DAKOTA/GRAND FORKS ND
400 AM CST MON MAR 02 2015

 **SATELLITE DATA USED TO AUGMENT SKY COVER AT AUTOMATED STATIONS**
 *****  WEATHER ACROSS EASTERN NORTH DAKOTA  *****

CITY           SKY/WX    TMP DP  RH WIND       PRES   REMARKS
GRAND FORKS    MOCLDY    -3  -8  79 S6        30.34F WCI -15
GRAND FORKS AF PTCLDY     1  -4  80 W6        30.34F WCI -10
GRAND CITY NWS   N/A      0 N/A N/A W3          N/A
BUXTON         NOT AVBL
DEVILS LAKE    PTCLDY     0  -6  78 SW5       30.28F WCI -10
FARGO          PTCLDY     2  -3  80 SW6       30.39F WCI  -9
WAHPETON ARPT  SUNNY      3   0  85 SW3       30.40F
$$

 *****  WEATHER ACROSS CENTRAL AND WESTERN NORTH DAKOTA  *****

CITY           SKY/WX    TMP DP  RH WIND       PRES   REMARKS
JAMESTOWN      PTCLDY     4  -1  80 CALM      30.31F
BISMARCK       CLEAR      4   1  88 E3        30.29F
MINOT          PTCLDY     8   1  73 CALM      30.20F
MINOT AFB      PTCLDY     8   3  81 S12       30.19F WCI  -8
GARRISON         N/A      3   0  87 SE3       30.21F
WILLISTON      PTCLDY     8   4  83 CALM      30.12F
DICKINSON      CLEAR      6   1  80 SE9       30.10F WCI  -8
HETTINGER      CLEAR     10   5  80 SE10      30.15F WCI  -4
$$

 *****  OTHER OBSERVATIONS NORTHEAST NORTH DAKOTA  *****

CITY           SKY/WX    TMP DP  RH WIND       PRES   REMARKS
WALHALLA         N/A      1   1 100 SW6       30.29S WCI -10
LANGDON        NOT AVBL
CAVALIER       FAIR       3   0  85 SW5       30.30F WCI  -6
GRAFTON        NOT AVBL
CANDO          FAIR      -4  -8  84 SW7       30.26F WCI -18
FORT TOTTEN    NOT AVBL
ROLLA          FAIR       3   0  85 SW13      30.21F WCI -14
RUGBY          FAIR       0  -4  85 SE5       30.24F WCI -10
 ***** THE ABOVE OBSERVATIONS ARE NON NWS ARE NOT QUALITY
        CONTROLLED AND MAY MIS-REPORT RAIN FOR SNOW...
$$

 *****  OTHER OBSERVATIONS SOUTHEAST NORTH DAKOTA *****

CITY           SKY/WX    TMP DP  RH WIND       PRES   REMARKS
COOPERSTOWN    NOT AVBL
VALLEY CITY    FAIR       0   0 100 S3        30.33F
OAKES            N/A      0  -4  85 S6        30.36F WCI -12
GWINNER        SUNNY      3   0  85 S10       30.38F WCI -12
SHEYENNE NWR     N/A      0  -5  80 SW7       29.95S WCI -13
BUFFALO        NOT AVBL
WYNDMERE         N/A      5   1  85 SW5         N/A  WCI  -4
 ***** THE ABOVE OBSERVATIONS ARE NON NWS ARE NOT QUALITY
       CONTROLLED AND MAY MIS-REPORT RAIN FOR SNOW...
$$

  *****  WEATHER ACROSS NORTHERN MINNESOTA  *****

CITY           SKY/WX    TMP DP  RH WIND       PRES   REMARKS
FLAG ISLAND    PTCLDY     3   0  85 CALM      30.27F
WARROAD        MOCLDY    -8 -11  84 S6        30.29S WCI -21
ROSEAU         MOCLDY    -6 -11  77 S5        30.29F WCI -17
HALLOCK        PTCLDY    -2  -8  78 SE7       30.30F WCI -16
THF RVR FALLS  MOCLDY    -2  -8  78 CALM      30.32S
HALSTAD          N/A     -1  -6  79 S6          N/A  WCI -12
FOSSTON        PTCLDY    -6  -9  84 S3        30.33F
BAUDETTE       MOCLDY    -2  -6  83 CALM      30.27F
WASKISH        PTCLDY     0  -2  92 CALM      30.31S
CROOKSTON      MOCLDY    -2  -6  84 S6        30.36S WCI -14
$$
  *****  WEATHER ACROSS CENTRAL AND WEST MINNESOTA  *****

CITY           SKY/WX    TMP DP  RH WIND       PRES   REMARKS
BEMIDJI        PTCLDY    -1  -4  87 SW3       30.31F
PARK RAPIDS    PTCLDY    -2  -7  79 S3        30.33S
WADENA         MOCLDY     0  -4  85 SW3       30.37R
DETROIT LAKES  PTCLDY     3   0  85 S5        30.36S WCI  -6
MOORHEAD       PTCLDY     1   0  92 S6        30.40R WCI -10
FERGUS FALLS   PTCLDY     1  -4  78 S6        30.44S WCI -10
ELBOW LAKE     FAIR       1  -1  89 S5        30.40S WCI  -8
MORRIS MN      PTCLDY     7   1  78 CALM      30.41S
STAPLES        PTCLDY    -2  -6  84 CALM      30.37R
WHEATON        NOT AVBL
$$
  *****  WEATHER ELSEWHERE ACROSS MINNESOTA  *****

CITY           SKY/WX    TMP DP  RH WIND       PRES   REMARKS
DULUTH         CLEAR      8   2  76 NW12      30.31S WCI  -7
INTRNTL FALLS  CLEAR     -2  -7  79 SW5       30.29S WCI -12
ELY            CLEAR      5   1  85 W5        30.28S WCI  -4
CLOQUET        CLEAR      5   1  85 W8        30.33S WCI  -8
BRAINERD       PTCLDY     1  -2  87 CALM      30.37F
HIBBING        CLEAR      4   0  83 SW5       30.31S WCI  -5
ALEXANDRIA     PTCLDY     4   0  83 SW5       30.38F WCI  -5
SAINT CLOUD    PTCLDY     6   2  83 CALM      30.41S
MINNEAPOLIS    CLEAR     13   6  74 W5        30.45R WCI   5
$$

  *****  WEATHER ACROSS SOUTH DAKOTA  *****

CITY           SKY/WX    TMP DP  RH WIND       PRES   REMARKS
SIOUX FALLS    PTCLDY     7   3  84 CALM      30.44S
BROOKINGS      NOT AVBL
WATERTOWN      PTCLDY    -1  -5  82 CALM      30.38F
HURON          PTCLDY     6   3  87 S7        30.43F WCI  -6
SISSETON         N/A      5   0  79 W5        30.39F WCI  -4
ABERDEEN       MOCLDY    -3  -6  87 S5        30.39F WCI -13
MITCHELL       PTCLDY    11   7  84 S5        30.45F WCI   3
PIERRE         PTCLDY    10   7  87 SE7       30.32F WCI  -1
MOBRIDGE       PTCLDY     8   3  80 SE7       30.28F WCI  -3
RAPID CITY     MOCLDY    16   9  74 S13       30.12F WCI   2
$$

  *****  SOME WEATHER IN NEARBY STATES *****

CITY           SKY/WX    TMP DP  RH WIND       PRES   REMARKS
GLASGOW MT     PTCLDY    16   9  74 SE16      29.95F WCI   1
GREAT FALLS MT CLOUDY    30   9  41 SW23      29.80F WCI  17
CHEYENNE WY    LGT SNOW  20  16  84 S14       30.02F FOG     WCI   7
SCOTTSBLUFF NE MOCLDY    27  17  66 E7        30.12F WCI  19
OMAHA NE       CLOUDY    23  16  74 CALM      30.48F
DES MOINES IA  MOCLDY    20  12  71 CALM      30.50S
DAVENPORT IA   PTCLDY     7   3  84 W7        30.47S WCI  -5
CHICAGO IL     CLEAR     15   7  70 W10       30.41S WCI   2
EAU CLAIRE WI  FAIR      11   3  70 W5        30.41R WCI   3
LA CROSSE WI   MOCLDY    17  10  74 W6        30.43R WCI   9
$$

  *****  SOME NATIONAL WEATHER *****

CITY           SKY/WX    TMP DP  RH WIND       PRES   REMARKS
LA GUARDIA NY  CLOUDY    31  25  78 NW3       30.02F
RALEIGH NC     FOG       36  35  96 SW8       30.18R VSB 1/8
ATLANTA GA     FOG       46  45  93 W6        30.29R VSB 1/4
NEW ORLEANS LA CLOUDY    60  57  89 E3        30.25F
OKLAHOMA CITY  CLOUDY    28  21  74 N7        30.41F WCI  21
ALBUQUERQUE NM CLOUDY    38  31  76 N9        30.09F
SALT LAKE CITY CLOUDY    39  31  72 E3        29.89F
LOS ANGELES CA MOCLDY    50  47  89 NE7       29.91F
BOISE ID       CLEAR     32  21  64 SE9       29.90F WCI  24
SEATTLE WA     CLOUDY    43  34  70 N8        29.98S
$$

*** WEATHER ACROSS MANITOBA...SASKATCHEWAN AND ONTARIO ***
                ***ONTARIO***

CITY           SKY/WX    TMP DP  RH WIND       PRES   REMARKS
GERALDTON      CLEAR      3  -4  72 NW7       30.10R WCI  -9
THUNDER BAY    CLEAR      9  -2  61 W7        30.27R WCI  -3
SIOUX LOOKOUT  CLEAR     -4 -11  71 W2        30.21R
TORONTO        MOCLDY    18  12  79 W9        30.12R WCI   6
BIG TROUT LK   CLEAR    -15 -20  76 W10       30.07S WCI -35
PICKLE LAKE    NOT AVBL
DRYDEN         CLEAR      0  -2  92 SW8       30.22S WCI -15
KENORA         CLEAR      1  -2  85 SW6       30.25R WCI -10
$$
                *** MANITOBA***

CITY           SKY/WX    TMP DP  RH WIND       PRES   REMARKS
BRANDON        CLEAR     -9 -15  77 W6        30.21F WCI -23
DAUPHIN        CLEAR      5   0  78 SW9       30.16F WCI  -9
ISLAND LAKE    CLEAR     -9 -17  70 SW6       30.11F WCI -23
PILOT MOUND      N/A     -8 -13  77 S6          N/A  WCI -21
THE PAS        CLEAR     -2  -8  78 SE8       29.98F WCI -17
THOMPSON       PTCLDY    -6 -13  71 S3        29.94F
WINNIPEG       CLEAR      1  -4  78 SW6       30.28F WCI -10
LYNN LAKE      MOCLDY     5  -4  66 SW9       29.75F WCI  -9
CHURCHILL      CLEAR    -22 -29  69 SW6       29.94  WCI -38
GILLAM         CLEAR    -15 -22  70 S2        29.99F
$$
                ***SASKATCHEWAN***

CITY           SKY/WX    TMP DP  RH WIND       PRES   REMARKS
ESTEVAN        CLEAR      3   0  85 S12       30.11F WCI -13
KINDERSLEY     MOCLDY    16   9  73 S14       29.75F WCI   1
LLOYDMINSTER   CLOUDY    16  10  79 SW12      29.72F WCI   3
PRINCE ALBERT  PTCLDY     3  -2  78 SW3       29.87F
REGINA         CLEAR      1  -2  85 SE17      30.01F WCI -19



USA.gov is the U.S. government's official web portal to all federal, state and local government web resources and services.